[[{"header":{"parameterUnit":"m.s-1","parameterCategory":1,"la1":30.2991,"la2":30.254,"lo1":-89.0895,"lo2":-89.0444,"dy":0.0017,"dx":0.0017,"nx":28,"ny":28,"refTime":"2023-11-05T03:00:00:Z","depth":0,"parameterNumber":2,"parameterNumberName":"U-component_of_WINDS"},"data":[0,0,0,0,0,0,0,0,0,0,0,0,0,0,0,0,0,0,0,0,0,0,0,0,0,0,0,0,0,0,0,0,0,0,0,0,0,0,0,0,0,0,0,0,0,0,0,0,0,0,0,0,0,0,0,0,0,0,0.9931,0.9932,0,1.0043,1.0044,1.0045,1.0037,1.0036,1.0034,1.0032,1.0152,1.0157,1.0161,0,0,0,0,0,0,0,0,0,0,0,0,0,0.9715,0.9719,0.9931,0.9933,0.9934,1.0043,1.0044,1.0046,1.0038,1.0036,1.0034,1.0032,1.015,1.0156,1.0162,0,0,0,0,0,0,0,0,0,0,0,0,0,0.9816,0.972,0.9931,0.9943,0.9945,1.0042,1.0044,1.0046,1.0038,1.0036,1.0033,1.0031,1.0149,1.0155,1.0162,1.0257,0,0,1.0184,1.0187,0,0,0,0,0,0,0,0,0.9811,0.9824,0.994,0.9942,0.9945,1.0024,1.0012,1.0117,1.0039,1.0003,1.0032,1.003,1.0112,1.0122,1.0148,1.0262,1.0267,1.0185,1.0189,1.0192,1.0194,0,0,0,0,0,0,0,0.9804,0.9819,0.9976,0.9941,0.9945,0.9944,0.9956,1.0032,1.007,1.0006,1.0006,1.0019,1.0113,1.0141,1.0151,1.0269,1.0185,1.0191,1.0195,1.0198,1.0466,1.0468,0,0,0,0,0,0,0.9793,0.9814,0.9972,0.9979,0.987,0.995,0.9963,1.0001,1.0069,1.0077,1.0021,1.0018,1.013,1.0143,1.0155,1.0269,1.0192,1.0199,1.0203,1.0463,1.0466,1.0469,0,0,0,0,0,0,0.9789,0.9807,0.9968,0.9896,0.9916,0.9956,0.9999,1.0004,1.0033,1.008,1.0088,1.0043,1.0129,1.0145,1.0231,1.0273,1.0202,1.0209,1.0459,1.0464,1.0468,1.0499,0,0,0,0,0,0,0.9782,0.9806,0.9841,0.9897,0.992,1.004,1.0002,1.0008,1.0045,1.0042,1.0103,1.0111,1.0128,1.022,1.0238,1.0282,1.0214,1.0456,1.0461,1.0466,1.0494,1.0503,1.0511,0,0,0,0,0,0.9775,0.9847,0.9843,0.9862,0.9965,1.0043,1.0056,1.0073,1.0048,1.0085,1.0115,1.0109,1.0266,1.0229,1.0249,1.0296,1.0453,1.046,1.0466,1.049,1.0501,1.0511,0,0,0,0,0,0,0.9797,0.9854,0.9851,0.9942,0.9987,1.0041,1.0087,1.0085,1.014,1.0135,1.0156,1.017,1.0256,1.0284,1.0243,1.039,1.0356,1.0367,1.0368,1.0379,1.0388,1.0379,1.022,0,0,0,0,0,0.9812,0.9868,0.9916,0.9993,1.0015,1.0048,1.0082,1.0091,1.0139,1.0159,1.0196,1.0244,1.0304,1.0343,1.0401,1.0498,1.0511,1.054,1.0549,1.0556,1.0565,1.0617,1.063,1.049,1.049,1.049,0,0,0.9844,0.9883,0.9918,0.9998,1.0034,1.0094,1.0064,1.0128,1.0173,1.0169,1.0252,1.028,1.0336,1.0427,1.0469,1.0454,1.0606,1.0564,1.0569,1.0574,1.0625,1.0638,1.065,1.0494,1.0494,1.0493,0,0,0.9934,0.9968,1.0035,1.0072,1.0126,1.0146,1.0163,1.0217,1.0235,1.0317,1.0316,1.037,1.0473,1.0512,1.0546,1.0649,1.0646,1.0668,1.0713,1.0764,1.0775,1.0785,1.0821,1.0834,1.0676,1.0677,1.0677,0,0.9968,1.0056,1.0071,1.0135,1.0171,1.0168,1.0237,1.0272,1.0343,1.0368,1.0349,1.0478,1.0515,1.0615,1.064,1.0668,1.0687,1.0661,1.0772,1.0782,1.0792,1.0827,1.084,1.0679,1.0679,1.0678,1.0678,0,1.0095,1.0156,1.0204,1.027,1.0311,1.0377,1.0403,1.0444,1.0449,1.0472,1.0556,1.0601,1.0667,1.0692,1.0699,1.0793,1.0781,1.0767,1.0734,1.0807,1.084,1.0854,1.0682,1.0681,1.0681,1.068,0,0,1.0201,1.0274,1.0291,1.0321,1.038,1.0428,1.0495,1.0558,1.0592,1.0641,1.0697,1.0784,1.0771,1.0809,1.082,1.0865,1.0943,1.0846,1.0847,1.0862,1.1049,1.1059,1.1074,1.0941,1.0944,1.0946,1.1044,0,1.0296,1.0412,1.0427,1.053,1.0586,1.0585,1.0643,1.0686,1.0709,1.0762,1.0788,1.0849,1.0827,1.085,1.0894,1.0924,1.0981,1.0918,1.0995,1.0997,1.098,1.1092,1.1102,1.1193,1.1057,1.106,1.1061,0,1.0422,1.0472,1.0581,1.0631,1.0655,1.0707,1.0765,1.0816,1.0865,1.0879,1.092,1.0926,1.0995,1.0959,1.1055,1.1011,1.1044,1.1064,1.1067,1.1075,1.1033,1.1102,1.1222,1.1235,1.1082,1.108,1.1079,0,1.0488,1.0583,1.066,1.0686,1.0747,1.0783,1.081,1.0857,1.0893,1.0945,1.0969,1.1029,1.1062,1.1109,1.1131,1.1102,1.1226,1.1191,1.124,1.1239,1.1265,1.1263,1.1392,1.1287,1.1287,1.1287,1.1287,0,1.0592,1.0658,1.069,1.0737,1.0811,1.0829,1.0902,1.0928,1.097,1.1022,1.1026,1.1076,1.1101,1.1156,1.1173,1.125,1.1265,1.1279,1.1283,1.1278,1.1276,1.1299,1.1293,1.1291,1.129,1.1289,1.1288,0,1.0678,1.0702,1.0785,1.0836,1.085,1.0902,1.0946,1.0992,1.1015,1.1082,1.1098,1.1134,1.1198,1.1224,1.1303,1.1315,1.1403,1.1402,1.1385,1.1386,1.1433,1.1428,1.1581,1.1601,1.1483,1.1485,1.1485,0,1.0742,1.0793,1.0848,1.0883,1.0911,1.0967,1.1004,1.1023,1.1062,1.1121,1.116,1.1223,1.1275,1.1377,1.1411,1.1471,1.1471,1.1521,1.1481,1.1474,1.1471,1.1467,1.1472,1.1528,1.1529,1.153,1.1531,0,1.0854,1.0863,1.0915,1.0972,1.1015,1.1061,1.1106,1.1134,1.1161,1.1204,1.1268,1.1308,1.1387,1.145,1.1512,1.1541,1.1541,1.1543,1.1558,1.1553,1.1541,1.1547,1.1405,1.154,1.1539,1.1538,1.1538,1.1538,1.0931,1.0975,1.102,1.1078,1.1113,1.1155,1.12,1.1228,1.1281,1.1346,1.1354,1.1423,1.1471,1.1553,1.1585,1.164,1.1627,1.1648,1.1653,1.1658,1.166,1.1533,1.1651,1.1651,1.1651,1.1651,1.1651,0,1.1041,1.107,1.1123,1.1184,1.123,1.1224,1.1273,1.1312,1.1372,1.1416,1.1466,1.1539,1.16,1.1638,1.1699,1.1735,1.1737,1.1751,1.1748,1.1755,1.1669,1.165,1.1749,1.1749,1.1749,1.1749,1.1749,1.1749,1.1104,1.1178,1.1193,1.1285,1.1314,1.1379,1.1408,1.1446,1.1481,1.1562,1.1612,1.1636,1.1677,1.1742,1.1797,1.1807,1.1829,1.1844,1.1852,1.1771,1.1761,1.1751,1.1733,1.1849,1.1849,1.1934,1.1935,1.1935]},{"header":{"parameterUnit":"m.s-1","parameterCategory":1,"la1":30.2991,"la2":30.254,"lo1":-89.0895,"lo2":-89.0444,"dy":0.0017,"dx":0.0017,"nx":28,"ny":28,"refTime":"2023-11-05T03:00:00:Z","depth":0,"parameterNumber":3,"parameterNumberName":"V-component_of_WINDS"},"data":[0,0,0,0,0,0,0,0,0,0,0,0,0,0,0,0,0,0,0,0,0,0,0,0,0,0,0,0,0,0,0,0,0,0,0,0,0,0,0,0,0,0,0,0,0,0,0,0,0,0,0,0,0,0,0,0,0,0,1.7213,1.7212,0,1.7187,1.7186,1.7186,1.7119,1.7117,1.7116,1.7115,1.7086,1.7086,1.7087,0,0,0,0,0,0,0,0,0,0,0,0,0,1.7199,1.72,1.7213,1.7212,1.7212,1.7187,1.7186,1.7186,1.7119,1.7117,1.7116,1.7114,1.7086,1.7086,1.7087,0,0,0,0,0,0,0,0,0,0,0,0,0,1.7193,1.72,1.7213,1.7176,1.7172,1.7187,1.7186,1.7186,1.712,1.7117,1.7115,1.7113,1.7085,1.7086,1.7087,1.7135,0,0,1.709,1.709,0,0,0,0,0,0,0,0,1.7193,1.7193,1.7181,1.7178,1.7174,1.7154,1.7171,1.7169,1.712,1.7139,1.7115,1.7112,1.711,1.7109,1.7108,1.7134,1.7132,1.709,1.709,1.7091,1.7091,0,0,0,0,0,0,0,1.7194,1.7194,1.7202,1.7181,1.7177,1.7159,1.7155,1.717,1.7137,1.7138,1.7133,1.7131,1.7108,1.7108,1.7107,1.7132,1.709,1.709,1.7091,1.7091,1.7189,1.7191,0,0,0,0,0,0,1.72,1.7195,1.7203,1.7202,1.7179,1.7161,1.7157,1.7163,1.7137,1.7131,1.7132,1.7128,1.7107,1.7106,1.7106,1.7156,1.7091,1.7091,1.7092,1.7187,1.7189,1.7192,0,0,0,0,0,0,1.72,1.7201,1.7204,1.7197,1.7196,1.7163,1.717,1.7163,1.7163,1.7133,1.7126,1.7139,1.7106,1.7105,1.7127,1.7154,1.7092,1.7092,1.7184,1.7188,1.7191,1.7259,0,0,0,0,0,0,1.72,1.7202,1.7221,1.7198,1.7196,1.7227,1.7172,1.7164,1.7165,1.7158,1.7137,1.7132,1.7104,1.7126,1.7128,1.7154,1.7093,1.7182,1.7186,1.719,1.7254,1.7264,1.7272,0,0,0,0,0,1.72,1.7242,1.7222,1.7224,1.722,1.7229,1.7228,1.7196,1.7168,1.7185,1.7165,1.7132,1.7152,1.7129,1.713,1.7157,1.718,1.7185,1.7189,1.725,1.7262,1.7272,0,0,0,0,0,0,1.7269,1.7238,1.7216,1.7253,1.7244,1.7218,1.7239,1.7211,1.721,1.7204,1.7163,1.7159,1.7186,1.7174,1.715,1.7199,1.716,1.7165,1.7205,1.7217,1.7226,1.7226,1.7094,0,0,0,0,0,1.7289,1.73,1.7272,1.7307,1.7304,1.7273,1.7276,1.7251,1.7241,1.7236,1.7218,1.7208,1.721,1.7214,1.7215,1.7253,1.7244,1.7271,1.7281,1.7288,1.7292,1.7306,1.7316,1.7207,1.7207,1.7207,0,0,1.733,1.7314,1.7324,1.7321,1.7311,1.7321,1.727,1.7284,1.729,1.7238,1.7257,1.7243,1.7229,1.7257,1.7269,1.7248,1.7321,1.7294,1.7301,1.73,1.7312,1.7322,1.7331,1.721,1.721,1.7209,0,0,1.7408,1.7399,1.7424,1.7415,1.7401,1.738,1.7386,1.7364,1.7352,1.737,1.733,1.7337,1.7345,1.7334,1.733,1.7401,1.7369,1.7403,1.7449,1.7463,1.7472,1.7479,1.7499,1.7508,1.7407,1.7408,1.7408,0,1.7459,1.7474,1.7441,1.7456,1.7454,1.7408,1.7431,1.7424,1.7411,1.7409,1.7387,1.7393,1.738,1.7403,1.742,1.742,1.7422,1.7403,1.7474,1.748,1.7487,1.7506,1.7514,1.7411,1.7411,1.7411,1.741,0,1.7536,1.7547,1.7569,1.7556,1.7557,1.7577,1.7544,1.7548,1.7524,1.7504,1.7521,1.7504,1.7499,1.7503,1.7481,1.7522,1.7509,1.7481,1.744,1.7501,1.7518,1.7526,1.7417,1.7416,1.7414,1.7413,0,0,1.7656,1.7624,1.7632,1.7623,1.7603,1.761,1.7626,1.7621,1.7623,1.7616,1.7626,1.7632,1.7604,1.76,1.7575,1.7588,1.7639,1.7557,1.7556,1.7569,1.7677,1.7696,1.7705,1.7619,1.762,1.7621,1.7677,0,1.7726,1.7751,1.772,1.7752,1.7758,1.7713,1.7726,1.7714,1.7696,1.7697,1.7677,1.768,1.7646,1.7642,1.7653,1.763,1.7659,1.7627,1.7623,1.7624,1.7624,1.7715,1.7735,1.7788,1.7684,1.7685,1.7686,0,1.781,1.7805,1.7836,1.781,1.7812,1.7825,1.7815,1.7819,1.7803,1.7788,1.7782,1.7751,1.7762,1.7725,1.7737,1.7715,1.7712,1.7701,1.7702,1.7697,1.7656,1.7708,1.7805,1.7811,1.7697,1.7696,1.7695,0,1.7888,1.789,1.7907,1.7902,1.7874,1.7883,1.7871,1.7853,1.7851,1.7843,1.784,1.7834,1.7829,1.7824,1.7792,1.7769,1.7806,1.7767,1.7791,1.7791,1.7798,1.7797,1.7891,1.7803,1.7803,1.7803,1.7803,0,1.7966,1.7986,1.7941,1.7952,1.7972,1.7935,1.7955,1.7939,1.7923,1.7927,1.789,1.7894,1.7854,1.7853,1.7828,1.7839,1.7839,1.7824,1.7817,1.7825,1.7826,1.782,1.7814,1.7805,1.7805,1.7804,1.7804,0,1.8056,1.8027,1.8042,1.8014,1.8007,1.8022,1.7996,1.8003,1.7982,1.7988,1.7988,1.7954,1.7951,1.7919,1.791,1.7892,1.7911,1.7899,1.7917,1.7911,1.7934,1.7931,1.8024,1.8033,1.7944,1.7945,1.7945,0,1.8105,1.8119,1.8091,1.8091,1.8081,1.8083,1.808,1.8044,1.8042,1.8023,1.8032,1.8026,1.8019,1.8016,1.7989,1.7981,1.7965,1.7998,1.7963,1.797,1.796,1.7958,1.7957,1.8005,1.8006,1.8007,1.8008,0,1.8194,1.8179,1.8176,1.8168,1.8165,1.8157,1.8146,1.8148,1.8109,1.8108,1.8104,1.8099,1.8088,1.8081,1.8068,1.8053,1.8022,1.8019,1.8023,1.803,1.8038,1.8029,1.7932,1.8016,1.8015,1.8015,1.8014,1.8014,1.8262,1.827,1.8251,1.8248,1.8236,1.8226,1.823,1.8209,1.8205,1.8194,1.8173,1.8172,1.8151,1.813,1.8118,1.8115,1.8097,1.8104,1.8105,1.8106,1.8109,1.8042,1.8113,1.8112,1.8112,1.8112,1.8112,0,1.8345,1.833,1.8328,1.8313,1.831,1.8283,1.8269,1.8267,1.8267,1.8251,1.8245,1.8238,1.8231,1.8203,1.8192,1.8194,1.8179,1.8192,1.8189,1.8186,1.8128,1.8123,1.8204,1.8204,1.8204,1.8204,1.8204,1.8204,1.8388,1.8399,1.8381,1.8384,1.8369,1.8367,1.8361,1.835,1.8337,1.8332,1.8325,1.8307,1.8286,1.8272,1.8263,1.8255,1.825,1.8267,1.8254,1.8199,1.819,1.8182,1.8177,1.8267,1.8267,1.8311,1.8311,1.8311]}]]